Tracking 30970 objects as of 3-Jul-2025
HD Live streaming from Space Station
objects crossing your sky now

SJ 16-02 DEB

Track SJ 16-02 DEB now!
10-day predictions


NORAD ID: 43428
Int'l Code: 2016-043C
Perigee: 595.2 km
Apogee: 953.4 km
Inclination: 75.0 °
Period: 100.2 minutes
Semi major axis: 7145 km
RCS: Unknown
Launch date: June 29, 2016
Source: People's Republic of China (PRC)
Launch site: Jiuquan Satellite Launch Center, China (JSC)

Note: This is SATELLITE DEBRIS
Your satellite tracking list
Your tracking list is empty




NASA's NSSDC Master Catalog

Two Line Element Set (TLE):
1 43428U 16043C   25182.97867776  .00002441  00000-0  57298-3 0  9995
2 43428  74.9629  35.5131 0250686 151.3630 210.1568 14.37387863468634
Source of the keplerian elements: AFSPC